CAPE
0 0 0 0 0 0 0 0 0 0 0 0 0 9 0 0 0 1 17 0 0 0 0 0 0 0 0 0 0 0 0 0 0 0 0 0 0 0 0 0 0 1 3 9
0 0 0 0 0 0 0 0 0 0 0 0 0 7 3 0 0 13 19 0 0 0 0 0 0 0 0 0 0 0 0 0 0 0 0 0 1 2 0 0 1 3 4 5
0 0 0 0 0 0 0 0 0 0 0 0 0 0 0 0 12 31 29 15 3 0 0 0 0 0 0 0 0 0 0 0 0 0 0 0 0 0 0 0 0 0 3 3
0 0 0 0 0 0 0 0 0 0 0 0 0 12 0 1 17 54 57 50 16 0 0 0 0 0 0 0 0 0 0 0 0 0 0 0 0 0 0 0 2 3 9 12
0 0 0 0 0 0 0 0 0 0 0 0 0 0 0 0 19 43 83 14 0 0 0 0 0 0 0 0 0 0 0 0 0 0 0 0 0 0 1 1 3 3 2 8
0 0 0 0 0 0 0 0 0 0 0 0 0 0 46 0 3 17 87 0 0 0 0 0 0 0 0 0 0 0 0 0 0 0 0 0 1 4 4 4 1 1 2 3
0 0 0 0 0 0 0 0 0 0 0 0 0 0 61 47 55 0 44 0 0 0 0 0 0 0 0 0 0 0 0 0 0 0 0 0 4 8 10 5 1 1 4 3
0 0 0 0 0 0 0 0 0 0 0 2 11 6 120 13 0 6 0 0 0 0 0 0 0 0 0 0 0 0 0 0 0 0 0 2 9 10 11 6 3 1 3 9
0 0 0 0 0 0 0 0 0 0 0 1 26 29 11 0 0 0 0 0 0 0 0 0 0 0 0 0 0 0 0 0 0 0 0 1 0 11 15 15 10 8 6 15
0 0 0 0 0 0 0 0 0 3 0 0 0 0 17 0 0 0 0 0 0 0 0 0 0 0 0 0 0 0 0 0 0 0 0 9 7 4 9 17 14 23 26 15
0 0 0 0 0 0 0 0 0 0 0 0 0 0 0 0 0 0 0 0 0 0 0 0 0 0 0 0 0 0 0 0 0 0 3 6 6 1 2 7 5 10 25 15
0 0 0 0 0 0 0 0 0 0 0 0 0 0 0 0 0 0 0 0 0 0 0 0 0 0 0 0 0 0 0 0 0 0 2 5 1 0 0 1 1 16 38 16
0 0 0 0 0 0 0 0 0 0 0 0 0 0 0 0 0 0 0 0 0 0 0 0 0 0 0 0 0 0 0 0 0 0 2 4 1 0 0 3 16 36 39 42
0 0 0 0 0 0 0 0 0 0 0 0 0 0 0 0 0 0 0 0 0 0 0 0 0 0 0 0 0 0 0 0 0 1 1 0 1 0 1 0 16 33 15 13
0 0 0 0 0 0 0 0 0 0 0 0 0 0 0 0 0 0 0 0 0 0 0 0 0 0 0 0 0 0 0 0 0 0 0 1 4 3 0 0 13 24 15 9
0 0 0 0 0 0 0 0 0 0 0 0 0 0 0 0 0 0 0 0 0 0 0 0 0 0 0 0 0 0 0 0 0 1 1 2 4 4 0 0 12 18 22 29
0 0 0 0 0 0 0 0 0 0 0 0 0 0 0 0 0 0 0 0 0 0 0 0 0 0 0 0 0 0 0 0 0 0 0 1 1 0 0 0 10 21 6 11
0 0 0 0 0 0 0 0 0 0 0 0 0 0 0 0 0 0 0 0 0 0 0 0 0 0 0 0 0 0 0 0 0 0 0 0 0 0 0 2 11 18 7 1
0 0 0 0 0 0 0 0 0 0 0 0 0 0 0 0 0 0 0 0 0 0 0 0 0 0 0 0 0 0 0 0 0 0 0 0 0 0 0 8 14 6 0 0
0 0 0 0 0 0 0 0 0 0 0 0 0 0 0 0 0 0 0 0 0 0 0 0 0 0 0 0 0 0 0 0 0 0 0 0 0 1 0 0 0 0 0 0
0 0 0 0 0 0 0 0 0 0 0 0 0 0 0 0 0 0 0 0 0 0 0 0 0 0 0 0 0 0 0 0 0 0 0 0 0 3 2 0 0 0 0 0
0 0 0 0 0 0 0 0 0 0 0 0 0 0 0 0 0 0 0 0 0 0 0 0 0 0 0 0 0 0 0 0 0 0 0 0 0 1 0 0 0 0 2 2
0 0 0 0 0 0 0 0 0 0 0 0 0 0 0 0 0 0 0 0 0 0 0 0 0 0 0 0 0 0 0 0 0 0 0 0 0 4 4 0 4 8 5 9
0 0 0 0 0 0 0 0 0 0 0 0 0 0 0 0 0 0 0 0 0 0 0 0 0 0 0 0 0 0 0 0 0 0 0 0 0 0 3 8 10 20 22 39
20 0 0 0 0 0 0 0 0 0 0 0 0 0 0 0 0 0 0 0 0 0 0 0 0 1 0 0 1 0 3 0 0 0 0 0 0 5 2 18 27 40 38 36
6 12 25 1 0 0 0 0 0 0 0 0 0 0 0 0 0 0 0 0 0 0 0 0 2 0 0 0 7 4 2 1 0 0 1 3 5 11 7 10 23 11 0 12
CIN
-0 -0 -0 -0 -0 -0 -0 -0 -0 -0 -0 -0 -0 -292 -0 -0 -0 -181 -198 -0 -0 -0 -0 -0 -0 -0 -0 -0 -0 -0 -0 -0 -0 -0 -0 -0 -0 -0 -0 -0 -1 -0 -1 -0
-0 -0 -0 -0 -0 -0 -0 -0 -0 -0 -0 -0 -0 -351 -259 -0 -0 -205 -184 -0 -0 -0 -0 -0 -0 -0 -0 -0 -0 -0 -0 -0 -0 -0 -0 -0 -0 -1 -0 -0 -1 -0 -0 -0
-0 -0 -0 -0 -0 -0 -0 -0 -0 -0 -0 -0 -0 -0 -0 -43 -186 -220 -179 -127 -58 -0 -0 -0 -0 -0 -0 -0 -0 -0 -0 -0 -0 -0 -0 -0 -0 -0 -0 -0 -0 -0 -0 -0
-0 -0 -0 -0 -0 -0 -0 -0 -0 -0 -0 -0 -0 -132 -0 -0 -251 -209 -140 -124 -108 -0 -0 -0 -0 -0 -0 -0 -0 -0 -0 -0 -0 -0 -0 -0 -0 -0 -0 -0 -2 -1 -0 -0
-0 -0 -0 -0 -0 -0 -0 -0 -0 -0 -0 -0 -0 -0 -0 -0 -283 -214 -152 -196 -0 -0 -0 -0 -0 -0 -0 -0 -0 -0 -0 -0 -0 -0 -0 -0 -0 -0 -1 -1 -1 -0 -0 -0
-0 -0 -0 -0 -0 -0 -0 -0 -0 -0 -0 -0 -0 -0 -114 -0 -140 -212 -152 -0 -0 -0 -0 -0 -0 -0 -0 -0 -0 -0 -0 -0 -0 -0 -0 -0 -0 -1 -1 -1 -1 -1 -1 -1
-0 -0 -0 -0 -0 -0 -0 -0 -0 -0 -2 -0 -0 -0 -115 -229 -103 -0 -153 -0 -0 -0 -0 -0 -0 -0 -0 -0 -0 -0 -0 -0 -0 -0 -0 -0 -1 -1 -1 -7 -5 -3 -1 -2
-0 -0 -0 -0 -0 -0 -0 -0 -0 -0 -0 -10 -184 -43 -130 -27 -0 -288 -36 -0 -0 -0 -0 -0 -0 -0 -0 -0 -0 -0 -0 -0 -0 -0 -0 -1 -5 -4 -3 -14 -23 -16 -14 -3
-0 -0 -0 -0 -0 -0 -0 -0 -0 -0 -0 -55 -96 -177 -23 -0 -0 -0 -0 -0 -0 -0 -0 -0 -0 -0 -0 -0 -0 -0 -0 -0 -0 -0 -0 -2 -0 -1 -2 -18 -20 -4 -17 -17
-0 -0 -0 -0 -0 -0 -0 -0 -0 -31 -0 -0 -0 -0 -60 -0 -0 -0 -0 -0 -0 -0 -0 -0 -0 -0 -0 -0 -0 -0 -0 -0 -0 -0 -0 -0 -0 -1 -2 -11 -13 -0 -4 -24
-0 -0 -0 -0 -0 -0 -0 -0 -0 -6 -0 -0 -0 -0 -0 -44 -0 -0 -0 -0 -0 -0 -0 -0 -0 -0 -0 -0 -0 -0 -0 -0 -0 -0 -0 -0 -0 -0 -10 -12 -21 -3 -2 -21
-0 -0 -0 -0 -0 -0 -0 -0 -0 -0 -0 -0 -0 -0 -0 -0 -0 -0 -0 -0 -0 -0 -0 -0 -0 -0 -0 -0 -0 -0 -0 -0 -0 -0 -0 -0 -0 -0 -0 -6 -0 -2 -0 -5
-0 -0 -0 -0 -0 -0 -0 -0 -0 -0 -0 -0 -0 -0 -0 -0 -0 -0 -0 -0 -0 -0 -0 -0 -0 -0 -0 -0 -0 -0 -0 -0 -0 -0 -0 -1 -0 -0 -0 -2 -0 -0 -0 -0
-0 -0 -0 -0 -0 -0 -0 -0 -0 -0 -0 -0 -0 -0 -0 -0 -0 -0 -0 -0 -0 -0 -0 -0 -0 -0 -0 -0 -0 -0 -0 -0 -0 -1 -0 -0 -0 -0 -0 -0 -3 -1 -17 -17
-0 -0 -0 -0 -0 -0 -0 -0 -0 -0 -0 -0 -0 -0 -0 -0 -0 -0 -0 -0 -0 -0 -0 -0 -0 -0 -0 -0 -0 -0 -0 -0 -0 -0 -0 -0 -0 -0 -0 -6 -12 -14 -25 -28
-0 -0 -0 -0 -0 -0 -0 -0 -0 -0 -0 -0 -0 -0 -0 -0 -0 -0 -0 -0 -0 -0 -0 -0 -0 -0 -0 -0 -0 -0 -0 -0 -0 -1 -0 -0 -0 -0 -0 -0 -15 -33 -32 -11
-0 -0 -0 -0 -0 -0 -0 -0 -0 -0 -0 -0 -0 -0 -0 -0 -0 -0 -0 -0 -0 -0 -0 -0 -0 -0 -0 -0 -0 -0 -0 -0 -0 -0 -1 -0 -0 -0 -0 -0 -16 -23 -49 -39
-0 -0 -0 -0 -0 -0 -0 -0 -0 -0 -0 -0 -0 -0 -0 -0 -0 -0 -0 -0 -0 -0 -0 -0 -0 -0 -0 -0 -0 -0 -0 -0 -0 -0 -0 -0 -0 -0 -0 -14 -15 -20 -42 -47
-0 -0 -0 -0 -0 -0 -0 -0 -0 -0 -0 -0 -0 -0 -0 -0 -0 -0 -0 -0 -0 -0 -0 -0 -0 -0 -0 -0 -0 -0 -0 -0 -0 -0 -0 -0 -0 -0 -11 -24 -25 -34 -4 -7
-0 -0 -0 -0 -0 -0 -0 -0 -0 -0 -0 -0 -0 -0 -0 -0 -0 -0 -0 -0 -0 -0 -0 -0 -0 -0 -0 -0 -0 -0 -0 -0 -0 -0 -0 -0 -0 -25 -26 -0 -0 -0 -0 -0
-0 -0 -0 -0 -0 -0 -0 -0 -0 -0 -0 -0 -0 -0 -0 -0 -0 -0 -0 -0 -0 -0 -0 -0 -0 -0 -0 -0 -0 -0 -0 -0 -0 -0 -0 -0 -0 -29 -39 -0 -0 -0 -0 -50
-0 -0 -0 -0 -0 -0 -0 -0 -0 -0 -0 -0 -0 -0 -0 -0 -0 -0 -0 -0 -0 -0 -0 -0 -0 -0 -0 -0 -0 -0 -0 -0 -0 -0 -0 -0 -0 -34 -0 -12 -0 -0 -65 -54
-0 -0 -0 -0 -0 -0 -0 -0 -0 -0 -0 -0 -0 -0 -0 -0 -0 -0 -0 -0 -0 -0 -0 -0 -0 -0 -0 -0 -0 -0 -0 -0 -0 -0 -0 -0 -0 -26 -51 -0 -54 -45 -55 -27
-0 -0 -32 -0 -0 -0 -0 -0 -0 -0 -0 -0 -0 -0 -0 -0 -0 -0 -0 -0 -0 -0 -0 -0 -0 -0 -0 -2 -0 -0 -0 -0 -0 -0 -0 -0 -0 -0 -45 -42 -44 -39 -30 -12
-230 -53 -19 -0 -0 -0 -0 -0 -0 -0 -0 -0 -0 -0 -0 -0 -0 -0 -0 -0 -0 -0 -0 -0 -0 -9 -0 -12 -11 -0 -13 -0 -0 -0 -0 -0 -0 -19 -31 -27 -25 -23 -22 -29
-268 -160 -81 -17 -0 -0 -0 -0 -0 -0 -0 -0 -0 -0 -0 -0 -0 -0 -0 -0 -0 -0 -0 -0 -17 -6 -0 -0 -17 -14 -12 -5 -0 -0 -1 -2 -4 -7 -26 -23 -12 -47 -9 -57
Wind_Speed
13 6 4 12 15 4 6 8 9 9 9 8 7 10 9 10 8 8 8 10 10 12 13 15 17 19 20 23 26 29 32 34 36 37 38 35 35 34 34 35 37 37 38 38
12 8 6 4 7 2 4 6 9 13 10 9 9 9 9 9 7 6 6 6 8 10 12 14 16 19 20 23 27 29 32 35 37 36 36 33 33 32 35 36 36 36 37 38
11 11 1 3 2 0 2 2 4 9 11 11 11 11 7 6 4 4 3 4 6 7 10 12 15 18 20 24 26 29 33 34 36 36 35 33 32 33 36 37 38 37 37 37
15 4 1 2 8 2 3 6 5 8 9 9 7 14 6 4 3 3 3 3 5 9 11 12 15 18 20 23 26 29 32 34 35 36 35 36 36 37 37 37 38 38 37 35
12 1 2 3 19 5 13 8 8 9 12 11 5 13 16 7 3 3 4 7 8 10 11 13 16 18 21 23 25 28 31 33 34 34 35 34 35 34 35 38 39 39 40 36
19 15 10 7 11 6 10 11 11 12 11 7 9 12 16 10 2 3 6 8 9 10 12 14 16 18 21 24 26 28 30 32 33 32 32 33 33 34 36 38 40 40 39 38
14 18 11 2 5 6 5 7 13 14 12 6 15 12 16 8 10 4 6 8 10 10 11 14 15 18 21 24 26 26 29 31 30 30 31 31 32 32 34 35 36 38 38 37
11 11 5 3 11 5 4 8 12 13 9 12 15 10 14 12 10 7 9 9 10 11 11 14 16 19 22 23 24 26 28 28 29 29 29 30 31 31 31 31 31 32 32 33
13 12 11 8 9 2 7 6 12 15 17 13 11 13 12 11 11 9 9 9 10 11 12 13 16 19 20 22 23 26 26 27 28 28 28 30 30 30 29 28 29 30 28 27
15 13 10 5 9 13 9 5 13 15 12 10 12 11 7 7 6 7 8 9 10 11 12 14 16 18 19 20 23 24 25 26 27 28 29 30 31 29 26 27 29 28 26 26
17 15 11 11 11 8 7 9 14 14 14 13 14 15 17 5 5 8 9 10 10 11 11 13 15 16 18 20 22 22 24 25 25 27 28 29 28 27 27 28 28 28 27 26
17 13 13 14 13 12 11 11 12 15 12 14 16 18 18 9 8 9 10 10 11 11 12 13 15 16 17 19 21 21 22 23 24 25 26 28 27 27 28 29 29 27 27 28
16 16 13 13 12 13 14 15 16 15 15 12 16 19 18 11 10 10 11 11 11 11 12 13 14 15 16 18 19 20 21 22 22 23 25 26 26 26 28 28 28 27 27 28
15 14 16 12 16 15 17 14 15 17 17 14 14 16 12 10 10 11 11 11 11 11 12 12 13 14 15 17 18 19 20 21 21 23 25 26 25 24 25 26 27 29 28 28
17 17 15 16 21 18 15 13 15 17 15 19 18 14 11 9 10 11 12 11 10 11 11 11 12 13 15 16 17 17 19 20 21 23 24 25 23 22 22 25 26 27 26 25
16 15 17 21 21 16 13 13 13 14 16 18 17 15 14 11 11 11 11 10 10 10 10 11 12 13 14 15 15 16 17 18 19 20 22 22 23 22 22 23 25 27 26 26
14 11 15 19 18 14 15 13 16 15 15 15 17 17 12 11 11 11 11 9 9 10 10 11 11 13 14 15 15 15 16 16 18 18 19 20 22 22 22 21 23 25 25 25
10 11 14 14 15 20 19 17 16 16 15 11 16 14 10 10 11 10 10 10 10 10 10 11 12 13 13 15 15 15 15 15 15 17 18 19 20 22 21 20 21 22 25 25
7 8 14 15 14 22 19 14 13 13 15 7 12 12 12 11 12 9 9 10 10 10 11 11 12 13 14 15 15 14 14 14 15 16 17 17 18 18 18 18 18 18 20 24
11 10 11 14 18 23 19 13 10 13 21 7 8 10 10 11 9 9 10 11 11 12 13 13 13 14 14 15 16 15 14 14 14 15 15 15 16 16 18 17 16 17 17 17
14 15 16 19 22 23 17 8 8 16 19 10 8 9 10 9 11 13 13 12 13 14 14 14 14 13 14 15 16 16 14 13 14 14 14 15 15 15 16 16 15 15 17 18
16 16 18 18 22 25 11 7 12 16 15 10 9 8 9 11 12 13 13 13 14 15 14 14 14 13 14 14 15 17 16 14 13 14 13 13 13 13 15 15 14 14 15 18
18 18 18 18 19 16 12 15 15 15 15 11 8 8 9 11 12 12 12 14 14 15 14 14 13 13 13 13 13 15 16 14 13 13 12 12 12 13 14 14 15 14 15 17
16 15 17 16 17 17 15 14 15 13 14 9 8 8 9 10 11 12 13 14 14 14 13 13 13 12 12 12 12 13 14 14 13 13 13 13 13 13 15 16 16 16 16 17
15 10 14 17 17 18 18 13 11 11 10 9 8 8 9 10 11 12 13 14 14 13 13 13 12 12 12 12 12 12 14 14 13 14 14 14 14 15 16 18 18 18 17 15
11 11 13 16 14 17 16 9 7 8 8 8 8 8 9 10 12 13 14 14 13 13 13 13 13 13 12 12 12 13 14 14 15 16 16 17 17 18 18 18 19 18 19 16
Wind_Direction
263 269 195 161 164 29 81 44 80 91 83 114 94 73 91 107 102 97 80 64 60 50 47 41 32 29 27 17 11 7 6 4 3 1 357 0 359 2 4 3 0 358 356 354
273 272 285 118 134 68 46 55 29 35 75 73 73 56 80 111 122 117 84 72 63 57 51 38 33 29 25 15 9 7 7 6 5 3 3 6 7 7 5 4 4 4 1 358
270 297 8 311 306 52 134 91 86 30 54 52 66 31 60 89 89 123 99 82 61 61 51 40 33 25 23 14 11 8 7 8 7 7 9 11 12 11 6 7 5 4 3 4
276 293 351 350 294 67 354 20 66 65 49 36 91 8 50 56 83 114 106 124 74 42 38 37 29 24 22 17 15 13 12 11 11 11 11 10 9 8 9 7 6 5 4 5
280 267 310 84 271 105 319 42 65 60 18 30 40 6 5 33 34 105 84 83 58 41 43 38 31 30 24 19 19 17 15 14 14 15 15 15 14 15 12 11 10 9 8 10
263 267 289 318 312 4 69 57 25 12 23 24 21 355 356 9 27 104 90 84 56 53 47 39 35 33 23 19 20 18 18 17 17 19 20 20 18 17 15 14 12 11 12 15
267 259 275 25 353 31 22 17 342 354 6 22 3 359 352 25 28 96 107 72 60 58 54 43 39 32 22 21 21 24 22 20 22 24 25 24 22 21 20 19 20 18 19 22
252 256 251 243 285 315 107 340 338 350 15 8 2 12 7 18 25 73 92 69 67 65 56 46 39 30 26 27 28 27 26 26 28 29 28 27 26 26 26 27 27 26 29 30
255 270 276 281 287 7 321 338 347 344 352 10 14 9 9 21 27 68 83 79 76 70 62 49 39 30 32 33 31 29 30 31 32 32 31 28 28 28 32 34 32 31 35 38
269 267 285 299 288 309 323 39 335 342 11 20 18 10 10 27 44 79 89 90 78 74 64 49 39 37 39 40 34 34 35 37 36 36 32 31 30 35 40 39 35 37 40 41
261 270 278 284 299 299 332 330 334 342 352 7 12 7 7 42 102 113 103 97 86 80 63 49 43 45 47 43 38 39 39 40 40 37 35 35 38 43 45 42 42 42 43 43
251 274 270 284 307 303 325 327 329 329 353 357 3 1 7 34 105 110 105 97 89 76 62 52 49 49 50 44 40 43 44 44 43 40 40 39 44 45 44 44 45 46 43 45
244 264 267 284 297 304 311 318 321 335 345 2 360 0 9 50 97 109 108 99 89 74 63 55 53 53 51 47 45 45 47 46 45 44 43 44 48 47 46 45 46 47 48 46
243 267 273 283 284 297 304 318 322 323 337 358 3 8 29 67 101 110 110 99 86 75 65 61 55 56 54 50 48 48 49 48 48 48 46 46 49 51 49 46 48 48 51 52
255 268 280 294 282 298 309 316 319 325 351 348 1 17 39 99 111 118 111 98 84 69 67 62 62 59 56 52 51 54 52 52 51 50 47 47 52 53 54 52 51 50 53 54
265 275 283 284 287 293 305 316 331 340 352 356 10 15 29 81 97 112 112 100 88 72 69 66 70 63 59 54 56 57 56 56 55 54 50 50 51 55 59 57 54 51 52 54
268 277 287 281 287 294 299 311 318 337 350 1 2 9 59 83 113 122 113 104 91 77 73 72 72 67 63 58 60 59 63 62 59 58 56 55 53 55 60 62 58 52 52 53
270 293 308 292 293 278 298 299 315 328 347 15 3 18 67 82 102 105 110 103 91 83 79 80 75 73 67 61 62 64 67 68 66 62 59 61 60 58 59 59 59 58 53 52
300 313 312 293 292 280 299 313 323 339 350 32 12 26 50 67 72 79 106 107 95 89 85 84 80 77 67 61 60 65 68 71 70 62 63 63 62 63 60 57 58 60 58 52
289 313 313 293 290 281 307 325 344 358 330 60 46 55 72 83 58 59 118 106 91 88 89 87 82 79 69 62 61 64 66 70 68 64 65 66 66 63 57 59 59 59 59 55
281 295 292 286 282 286 310 345 360 331 337 53 64 73 88 83 45 48 99 98 95 92 96 87 83 82 76 67 60 58 63 68 68 65 65 66 65 61 55 55 58 58 53 49
281 284 293 292 286 285 322 334 312 330 353 28 51 75 83 53 50 70 84 92 96 96 96 93 87 84 79 71 60 52 54 65 67 63 63 64 63 57 52 49 49 54 51 46
278 289 294 291 295 310 305 310 313 338 346 14 51 66 74 66 67 74 81 95 96 98 96 92 91 81 74 74 64 52 49 59 63 57 59 60 57 53 47 46 44 47 48 45
290 300 295 298 304 304 306 319 327 335 346 28 43 73 82 70 78 74 86 97 96 98 95 85 84 82 73 71 65 59 52 57 62 53 53 51 47 46 43 41 42 43 45 46
294 297 299 304 309 310 311 319 342 350 6 27 35 61 75 79 82 85 93 97 94 96 88 81 74 69 71 67 70 62 55 56 57 49 47 46 46 42 41 37 38 39 42 47
284 295 306 309 316 319 329 357 17 20 24 32 40 45 72 86 87 90 94 95 90 88 82 74 73 73 77 74 68 61 59 56 55 46 45 43 40 36 35 33 34 41 41 45